contact:dominique.lefevre@mio.osupytheas.fr, maurice.libes@osupytheas.fr, didier.mallarino@osupytheas.fr
Project:EMSO http://www.emso-fr.org/EMSO-France
Depth: 2436.0 m
Title:EMSO Ligure Ouest : Data MII capteur MICROCAT
DateTime_Computer,Latitude,Longitude,Temperature,Conductivity,Pressure,DateTime_Instrument
DateTime_Computer,Latitude,Longitude,degC,S m-1,dbar,DateTime_Instrument
2020-09-16T00:01:25Z,42.805,6.029,13.2970,4.59972,2469.993,2020-9-16T02:02:17Z
2020-09-16T00:04:28Z,42.805,6.029,13.2971,4.59972,2470.017,2020-9-16T02:05:19Z
2020-09-16T00:07:31Z,42.805,6.029,13.2974,4.59973,2470.04,2020-9-16T02:08:23Z
2020-09-16T00:10:36Z,42.805,6.029,13.2973,4.59973,2470.017,2020-9-16T02:11:28Z
2020-09-16T00:13:41Z,42.805,6.029,13.2974,4.59973,2470.017,2020-9-16T02:14:32Z
2020-09-16T00:16:42Z,42.805,6.029,13.2968,4.59972,2469.979,2020-9-16T02:17:34Z
2020-09-16T00:19:46Z,42.805,6.029,13.2971,4.59972,2470.04,2020-9-16T02:20:38Z
2020-09-16T00:22:51Z,42.805,6.029,13.2969,4.59973,2470.04,2020-9-16T02:23:43Z
2020-09-16T00:25:55Z,42.805,6.029,13.2968,4.59973,2470.017,2020-9-16T02:26:47Z
2020-09-16T00:29:00Z,42.805,6.029,13.2972,4.59973,2470.007,2020-9-16T02:29:52Z
2020-09-16T00:32:02Z,42.805,6.029,13.2975,4.59973,2470.017,2020-9-16T02:32:54Z
2020-09-16T00:35:04Z,42.805,6.029,13.2973,4.59973,2470.017,2020-9-16T02:35:56Z
2020-09-16T00:38:09Z,42.805,6.029,13.2968,4.59973,2470.03,2020-9-16T02:39:01Z
2020-09-16T00:41:13Z,42.805,6.029,13.2973,4.59973,2470.04,2020-9-16T02:42:04Z
2020-09-16T00:44:17Z,42.805,6.029,13.2971,4.59973,2469.979,2020-9-16T02:45:09Z
2020-09-16T00:47:19Z,42.805,6.029,13.2974,4.59972,2470.017,2020-9-16T02:48:11Z
2020-09-16T00:50:24Z,42.805,6.029,13.2971,4.59973,2470.03,2020-9-16T02:51:16Z
2020-09-16T00:53:26Z,42.805,6.029,13.2972,4.59973,2469.993,2020-9-16T02:54:18Z
2020-09-16T00:56:27Z,42.805,6.029,13.2971,4.59973,2469.97,2020-9-16T02:57:19Z
2020-09-16T00:59:31Z,42.805,6.029,13.2972,4.59973,2470.053,2020-9-16T03:00:22Z
2020-09-16T01:02:32Z,42.805,6.029,13.2974,4.59973,2469.993,2020-9-16T03:03:24Z
2020-09-16T01:05:36Z,42.805,6.029,13.2970,4.59974,2470.007,2020-9-16T03:06:28Z
2020-09-16T01:08:40Z,42.805,6.029,13.2970,4.59973,2470.04,2020-9-16T03:09:32Z
2020-09-16T01:11:43Z,42.805,6.029,13.2971,4.59974,2470.017,2020-9-16T03:12:35Z
2020-09-16T01:14:45Z,42.805,6.029,13.2975,4.59973,2470.007,2020-9-16T03:15:36Z
2020-09-16T01:17:46Z,42.805,6.029,13.2971,4.59972,2470.007,2020-9-16T03:18:37Z
2020-09-16T01:20:49Z,42.805,6.029,13.2973,4.59973,2470.017,2020-9-16T03:21:41Z
2020-09-16T01:23:53Z,42.805,6.029,13.2974,4.59973,2470.017,2020-9-16T03:24:44Z
2020-09-16T01:26:56Z,42.805,6.029,13.2975,4.59973,2470.007,2020-9-16T03:27:47Z
2020-09-16T01:29:59Z,42.805,6.029,13.2975,4.59971,2470.053,2020-9-16T03:30:51Z
2020-09-16T01:33:03Z,42.805,6.029,13.2973,4.59973,2470.053,2020-9-16T03:33:55Z
2020-09-16T01:36:04Z,42.805,6.029,13.2974,4.59973,2470.053,2020-9-16T03:36:56Z
2020-09-16T01:39:08Z,42.805,6.029,13.2973,4.59972,2470.003,2020-9-16T03:40:00Z
2020-09-16T01:42:11Z,42.805,6.029,13.2971,4.59973,2470.003,2020-9-16T03:43:03Z
2020-09-16T01:45:16Z,42.805,6.029,13.2973,4.59973,2470.017,2020-9-16T03:46:07Z
2020-09-16T01:48:20Z,42.805,6.029,13.2971,4.59972,2470.017,2020-9-16T03:49:12Z
2020-09-16T01:51:24Z,42.805,6.029,13.2974,4.59973,2470.04,2020-9-16T03:52:15Z
2020-09-16T01:54:29Z,42.805,6.029,13.2972,4.59973,2470.04,2020-9-16T03:55:20Z
2020-09-16T01:57:32Z,42.805,6.029,13.2972,4.59973,2470.04,2020-9-16T03:58:24Z
2020-09-16T02:00:33Z,42.805,6.029,13.2969,4.59972,2470.017,2020-9-16T04:01:25Z
2020-09-16T02:03:37Z,42.805,6.029,13.2974,4.59973,2470.053,2020-9-16T04:04:28Z
2020-09-16T02:06:38Z,42.805,6.029,13.2971,4.59973,2470.04,2020-9-16T04:07:30Z
2020-09-16T02:09:42Z,42.805,6.029,13.2970,4.59975,2470.04,2020-9-16T04:10:33Z
2020-09-16T02:12:46Z,42.805,6.029,13.2971,4.59972,2470.067,2020-9-16T04:13:38Z
2020-09-16T02:15:51Z,42.805,6.029,13.2971,4.59972,2470.04,2020-9-16T04:16:43Z
2020-09-16T02:18:55Z,42.805,6.029,13.2974,4.59973,2470.04,2020-9-16T04:19:46Z
2020-09-16T02:21:57Z,42.805,6.029,13.2972,4.59973,2470.017,2020-9-16T04:22:49Z
2020-09-16T02:25:00Z,42.805,6.029,13.2969,4.59973,2470.017,2020-9-16T04:25:52Z
2020-09-16T02:28:04Z,42.805,6.029,13.2973,4.59973,2470.04,2020-9-16T04:28:55Z
2020-09-16T02:31:07Z,42.805,6.029,13.2971,4.59972,2470.063,2020-9-16T04:31:59Z
2020-09-16T02:34:11Z,42.805,6.029,13.2971,4.59972,2470.04,2020-9-16T04:35:03Z
2020-09-16T02:37:15Z,42.805,6.029,13.2971,4.59972,2470.017,2020-9-16T04:38:07Z
2020-09-16T02:40:17Z,42.805,6.029,13.2969,4.59973,2470.04,2020-9-16T04:41:09Z
2020-09-16T02:43:21Z,42.805,6.029,13.2972,4.59973,2470.063,2020-9-16T04:44:13Z
2020-09-16T02:46:23Z,42.805,6.029,13.2972,4.59973,2470.063,2020-9-16T04:47:15Z
2020-09-16T02:49:25Z,42.805,6.029,13.2971,4.59973,2470.063,2020-9-16T04:50:16Z
2020-09-16T02:52:29Z,42.805,6.029,13.2974,4.59973,2470.077,2020-9-16T04:53:21Z
2020-09-16T02:55:31Z,42.805,6.029,13.2971,4.59973,2470.04,2020-9-16T04:56:23Z
2020-09-16T02:58:35Z,42.805,6.029,13.2971,4.59973,2470.063,2020-9-16T04:59:27Z
2020-09-16T03:01:38Z,42.805,6.029,13.2972,4.59973,2470.063,2020-9-16T05:02:30Z
2020-09-16T03:04:42Z,42.805,6.029,13.2974,4.59972,2470.063,2020-9-16T05:05:34Z
2020-09-16T03:07:44Z,42.805,6.029,13.2974,4.59973,2470.053,2020-9-16T05:08:36Z
2020-09-16T03:10:48Z,42.805,6.029,13.2973,4.59973,2470.063,2020-9-16T05:11:40Z
2020-09-16T03:13:52Z,42.805,6.029,13.2972,4.59973,2470.077,2020-9-16T05:14:44Z
2020-09-16T03:16:56Z,42.805,6.029,13.2969,4.59973,2470.063,2020-9-16T05:17:48Z
2020-09-16T03:19:58Z,42.805,6.029,13.2972,4.59972,2470.087,2020-9-16T05:20:50Z
2020-09-16T03:23:00Z,42.805,6.029,13.2971,4.59973,2470.1,2020-9-16T05:23:52Z
2020-09-16T03:26:03Z,42.805,6.029,13.2971,4.59972,2470.087,2020-9-16T05:26:55Z
2020-09-16T03:29:07Z,42.805,6.029,13.2975,4.59973,2470.077,2020-9-16T05:29:59Z
2020-09-16T03:32:09Z,42.805,6.029,13.2973,4.59973,2470.133,2020-9-16T05:33:01Z
2020-09-16T03:35:12Z,42.805,6.029,13.2971,4.59973,2470.1,2020-9-16T05:36:04Z
2020-09-16T03:38:15Z,42.805,6.029,13.2970,4.59972,2470.077,2020-9-16T05:39:07Z
2020-09-16T03:41:19Z,42.805,6.029,13.2970,4.59973,2470.087,2020-9-16T05:42:11Z
2020-09-16T03:44:21Z,42.805,6.029,13.2971,4.59973,2470.1,2020-9-16T05:45:13Z
2020-09-16T03:47:24Z,42.805,6.029,13.2967,4.59972,2470.1,2020-9-16T05:48:15Z
2020-09-16T03:50:26Z,42.805,6.029,13.2970,4.59973,2470.1,2020-9-16T05:51:17Z
2020-09-16T03:53:27Z,42.805,6.029,13.2971,4.59973,2470.087,2020-9-16T05:54:19Z
2020-09-16T03:56:31Z,42.805,6.029,13.2971,4.59973,2470.096,2020-9-16T05:57:22Z
2020-09-16T03:59:35Z,42.805,6.029,13.2972,4.59973,2470.087,2020-9-16T06:00:26Z
2020-09-16T04:02:39Z,42.805,6.029,13.2973,4.59972,2470.087,2020-9-16T06:03:31Z
2020-09-16T04:05:44Z,42.805,6.029,13.2969,4.59973,2470.11,2020-9-16T06:06:35Z
2020-09-16T04:08:46Z,42.805,6.029,13.2969,4.59973,2470.11,2020-9-16T06:09:37Z
2020-09-16T04:11:49Z,42.805,6.029,13.2970,4.59973,2470.063,2020-9-16T06:12:41Z
2020-09-16T04:14:52Z,42.805,6.029,13.2971,4.59973,2470.11,2020-9-16T06:15:44Z
2020-09-16T04:17:55Z,42.805,6.029,13.2971,4.59974,2470.11,2020-9-16T06:18:46Z
2020-09-16T04:20:58Z,42.805,6.029,13.2971,4.59973,2470.11,2020-9-16T06:21:50Z
2020-09-16T04:24:01Z,42.805,6.029,13.2974,4.59973,2470.147,2020-9-16T06:24:53Z
2020-09-16T04:27:06Z,42.805,6.029,13.2974,4.59973,2470.133,2020-9-16T06:27:57Z
2020-09-16T04:30:10Z,42.805,6.029,13.2974,4.59974,2470.156,2020-9-16T06:31:02Z
2020-09-16T04:33:13Z,42.805,6.029,13.2974,4.59973,2470.124,2020-9-16T06:34:05Z
2020-09-16T04:36:16Z,42.805,6.029,13.2971,4.59974,2470.11,2020-9-16T06:37:07Z
2020-09-16T04:39:17Z,42.805,6.029,13.2972,4.59973,2470.156,2020-9-16T06:40:08Z
2020-09-16T04:42:20Z,42.805,6.029,13.2969,4.59973,2470.133,2020-9-16T06:43:12Z
2020-09-16T04:45:23Z,42.805,6.029,13.2973,4.59973,2470.11,2020-9-16T06:46:15Z
2020-09-16T04:48:28Z,42.805,6.029,13.2974,4.59973,2470.156,2020-9-16T06:49:19Z
2020-09-16T04:51:30Z,42.805,6.029,13.2967,4.59973,2470.11,2020-9-16T06:52:21Z
2020-09-16T04:54:33Z,42.805,6.029,13.2973,4.59972,2470.156,2020-9-16T06:55:25Z
2020-09-16T04:57:35Z,42.805,6.029,13.2972,4.59973,2470.156,2020-9-16T06:58:27Z
2020-09-16T05:00:36Z,42.805,6.029,13.2974,4.59972,2470.156,2020-9-16T07:01:28Z
2020-09-16T05:03:41Z,42.805,6.029,13.2974,4.59973,2470.133,2020-9-16T07:04:33Z
2020-09-16T05:06:46Z,42.805,6.029,13.2971,4.59973,2470.133,2020-9-16T07:07:37Z
2020-09-16T05:09:49Z,42.805,6.029,13.2974,4.59973,2470.156,2020-9-16T07:10:41Z
2020-09-16T05:12:53Z,42.805,6.029,13.2974,4.59973,2470.133,2020-9-16T07:13:44Z
2020-09-16T05:15:53Z,42.805,6.029,13.2974,4.59973,2470.133,2020-9-16T07:16:45Z
2020-09-16T05:18:56Z,42.805,6.029,13.2974,4.59973,2470.194,2020-9-16T07:19:48Z
2020-09-16T05:21:59Z,42.805,6.029,13.2976,4.59973,2470.156,2020-9-16T07:22:50Z
2020-09-16T05:25:03Z,42.805,6.029,13.2971,4.59972,2470.133,2020-9-16T07:25:54Z
2020-09-16T05:28:06Z,42.805,6.029,13.2974,4.59973,2470.156,2020-9-16T07:28:58Z
2020-09-16T05:31:09Z,42.805,6.029,13.2974,4.59973,2470.156,2020-9-16T07:32:01Z
2020-09-16T05:34:12Z,42.805,6.029,13.2969,4.59973,2470.18,2020-9-16T07:35:04Z
2020-09-16T05:37:15Z,42.805,6.029,13.2972,4.59973,2470.156,2020-9-16T07:38:07Z
2020-09-16T05:40:18Z,42.805,6.029,13.2969,4.59973,2470.156,2020-9-16T07:41:10Z
2020-09-16T05:43:23Z,42.805,6.029,13.2971,4.59973,2470.147,2020-9-16T07:44:15Z
2020-09-16T05:46:26Z,42.805,6.029,13.2971,4.59974,2470.171,2020-9-16T07:47:18Z
2020-09-16T05:49:29Z,42.805,6.029,13.2971,4.59973,2470.156,2020-9-16T07:50:21Z
2020-09-16T05:52:33Z,42.805,6.029,13.2968,4.59973,2470.156,2020-9-16T07:53:24Z
2020-09-16T05:55:35Z,42.805,6.029,13.2973,4.59973,2470.156,2020-9-16T07:56:26Z
2020-09-16T05:58:39Z,42.805,6.029,13.2974,4.59974,2470.194,2020-9-16T07:59:31Z
2020-09-16T06:01:40Z,42.805,6.029,13.2974,4.59973,2470.171,2020-9-16T08:02:32Z
2020-09-16T06:04:42Z,42.805,6.029,13.2969,4.59972,2470.171,2020-9-16T08:05:34Z
2020-09-16T06:07:46Z,42.805,6.029,13.2971,4.59973,2470.18,2020-9-16T08:08:38Z
2020-09-16T06:10:50Z,42.805,6.029,13.2970,4.59973,2470.18,2020-9-16T08:11:42Z
2020-09-16T06:13:54Z,42.805,6.029,13.2968,4.59973,2470.217,2020-9-16T08:14:46Z
2020-09-16T06:16:57Z,42.805,6.029,13.2970,4.59974,2470.18,2020-9-16T08:17:49Z
2020-09-16T06:20:00Z,42.805,6.029,13.2967,4.59974,2470.203,2020-9-16T08:20:52Z
2020-09-16T06:23:03Z,42.805,6.029,13.2971,4.59973,2470.18,2020-9-16T08:23:55Z
2020-09-16T06:26:04Z,42.805,6.029,13.2974,4.59973,2470.18,2020-9-16T08:26:56Z
2020-09-16T06:29:09Z,42.805,6.029,13.2971,4.59973,2470.18,2020-9-16T08:30:00Z
2020-09-16T06:32:12Z,42.805,6.029,13.2971,4.59972,2470.171,2020-9-16T08:33:03Z
2020-09-16T06:35:13Z,42.805,6.029,13.2974,4.59973,2470.18,2020-9-16T08:36:04Z
2020-09-16T06:38:16Z,42.805,6.029,13.2974,4.59973,2470.18,2020-9-16T08:39:08Z
2020-09-16T06:41:18Z,42.805,6.029,13.2971,4.59973,2470.18,2020-9-16T08:42:09Z
2020-09-16T06:44:20Z,42.805,6.029,13.2971,4.59973,2470.171,2020-9-16T08:45:12Z
2020-09-16T06:47:24Z,42.805,6.029,13.2971,4.59973,2470.156,2020-9-16T08:48:16Z
2020-09-16T06:50:28Z,42.805,6.029,13.2976,4.59973,2470.194,2020-9-16T08:51:20Z
2020-09-16T06:53:30Z,42.805,6.029,13.2972,4.59974,2470.171,2020-9-16T08:54:22Z
2020-09-16T06:56:33Z,42.805,6.029,13.2973,4.59973,2470.133,2020-9-16T08:57:25Z
2020-09-16T06:59:37Z,42.805,6.029,13.2970,4.59973,2470.194,2020-9-16T09:00:29Z
2020-09-16T07:02:40Z,42.805,6.029,13.2971,4.59974,2470.156,2020-9-16T09:03:32Z
2020-09-16T07:05:45Z,42.805,6.029,13.2976,4.59973,2470.171,2020-9-16T09:06:37Z
2020-09-16T07:08:49Z,42.805,6.029,13.2972,4.59973,2470.194,2020-9-16T09:09:41Z
2020-09-16T07:11:54Z,42.805,6.029,13.2969,4.59973,2470.18,2020-9-16T09:12:45Z
2020-09-16T07:14:57Z,42.805,6.029,13.2976,4.59974,2470.156,2020-9-16T09:15:49Z
2020-09-16T07:18:00Z,42.805,6.029,13.2971,4.59973,2470.156,2020-9-16T09:18:52Z
2020-09-16T07:21:05Z,42.805,6.029,13.2973,4.59973,2470.203,2020-9-16T09:21:56Z
2020-09-16T07:24:09Z,42.805,6.029,13.2968,4.59973,2470.194,2020-9-16T09:25:00Z
2020-09-16T07:27:12Z,42.805,6.029,13.2970,4.59973,2470.133,2020-9-16T09:28:04Z
2020-09-16T07:30:15Z,42.805,6.029,13.2970,4.59974,2470.133,2020-9-16T09:31:07Z
2020-09-16T07:33:19Z,42.805,6.029,13.2968,4.59974,2470.133,2020-9-16T09:34:10Z
2020-09-16T07:36:22Z,42.805,6.029,13.2973,4.59973,2470.133,2020-9-16T09:37:14Z
2020-09-16T07:39:25Z,42.805,6.029,13.2974,4.59973,2470.18,2020-9-16T09:40:17Z
2020-09-16T07:42:27Z,42.805,6.029,13.2972,4.59973,2470.133,2020-9-16T09:43:18Z
2020-09-16T07:45:29Z,42.805,6.029,13.2974,4.59973,2470.156,2020-9-16T09:46:20Z
2020-09-16T07:48:33Z,42.805,6.029,13.2971,4.59973,2470.133,2020-9-16T09:49:24Z
2020-09-16T07:51:35Z,42.805,6.029,13.2969,4.59973,2470.156,2020-9-16T09:52:26Z
2020-09-16T07:54:37Z,42.805,6.029,13.2973,4.59974,2470.147,2020-9-16T09:55:29Z
2020-09-16T07:57:38Z,42.805,6.029,13.2970,4.59973,2470.133,2020-9-16T09:58:30Z
2020-09-16T08:00:42Z,42.805,6.029,13.2976,4.59973,2470.147,2020-9-16T10:01:33Z
2020-09-16T08:03:46Z,42.805,6.029,13.2972,4.59973,2470.133,2020-9-16T10:04:38Z
2020-09-16T08:06:49Z,42.805,6.029,13.2970,4.59973,2470.11,2020-9-16T10:07:41Z
2020-09-16T08:09:53Z,42.805,6.029,13.2971,4.59973,2470.133,2020-9-16T10:10:45Z
2020-09-16T08:12:56Z,42.805,6.029,13.2971,4.59973,2470.147,2020-9-16T10:13:48Z
2020-09-16T08:15:59Z,42.805,6.029,13.2971,4.59973,2470.133,2020-9-16T10:16:51Z
2020-09-16T08:19:03Z,42.805,6.029,13.2970,4.59973,2470.11,2020-9-16T10:19:54Z
2020-09-16T08:22:05Z,42.805,6.029,13.2976,4.59973,2470.133,2020-9-16T10:22:56Z
2020-09-16T08:25:06Z,42.805,6.029,13.2971,4.59973,2470.087,2020-9-16T10:25:58Z
2020-09-16T08:28:08Z,42.805,6.029,13.2972,4.59973,2470.133,2020-9-16T10:28:59Z
2020-09-16T08:31:12Z,42.805,6.029,13.2969,4.59973,2470.133,2020-9-16T10:32:04Z
2020-09-16T08:34:16Z,42.805,6.029,13.2971,4.59972,2470.133,2020-9-16T10:35:08Z
2020-09-16T08:37:18Z,42.805,6.029,13.2974,4.59973,2470.11,2020-9-16T10:38:10Z
2020-09-16T08:40:23Z,42.805,6.029,13.2974,4.59973,2470.087,2020-9-16T10:41:15Z
2020-09-16T08:43:27Z,42.805,6.029,13.2975,4.59973,2470.11,2020-9-16T10:44:19Z
2020-09-16T08:46:29Z,42.805,6.029,13.2971,4.59972,2470.11,2020-9-16T10:47:21Z
2020-09-16T08:49:34Z,42.805,6.029,13.2970,4.59973,2470.133,2020-9-16T10:50:25Z
2020-09-16T08:52:35Z,42.805,6.029,13.2973,4.59972,2470.087,2020-9-16T10:53:27Z
2020-09-16T08:55:38Z,42.805,6.029,13.2974,4.59973,2470.133,2020-9-16T10:56:30Z
2020-09-16T08:58:40Z,42.805,6.029,13.2971,4.59973,2470.11,2020-9-16T10:59:32Z
2020-09-16T09:01:41Z,42.805,6.029,13.2974,4.59973,2470.1,2020-9-16T11:02:33Z
2020-09-16T09:04:44Z,42.805,6.029,13.2970,4.59973,2470.087,2020-9-16T11:05:36Z
2020-09-16T09:07:48Z,42.805,6.029,13.2968,4.59972,2470.1,2020-9-16T11:08:40Z
2020-09-16T09:10:52Z,42.805,6.029,13.2968,4.59973,2470.087,2020-9-16T11:11:44Z
2020-09-16T09:13:55Z,42.805,6.029,13.2970,4.59973,2470.087,2020-9-16T11:14:47Z
2020-09-16T09:16:57Z,42.805,6.029,13.2971,4.59972,2470.1,2020-9-16T11:17:49Z
2020-09-16T09:20:00Z,42.805,6.029,13.2974,4.59973,2470.087,2020-9-16T11:20:52Z
2020-09-16T09:23:05Z,42.805,6.029,13.2971,4.59972,2470.087,2020-9-16T11:23:57Z
2020-09-16T09:26:10Z,42.805,6.029,13.2972,4.59972,2470.11,2020-9-16T11:27:02Z
2020-09-16T09:29:14Z,42.805,6.029,13.2972,4.59974,2470.077,2020-9-16T11:30:05Z
2020-09-16T09:32:17Z,42.805,6.029,13.2974,4.59972,2470.1,2020-9-16T11:33:09Z
2020-09-16T09:35:20Z,42.805,6.029,13.2974,4.59974,2470.053,2020-9-16T11:36:12Z
2020-09-16T09:38:24Z,42.805,6.029,13.2971,4.59972,2470.063,2020-9-16T11:39:15Z
2020-09-16T09:41:27Z,42.805,6.029,13.2974,4.59971,2470.087,2020-9-16T11:42:19Z
2020-09-16T09:44:30Z,42.805,6.029,13.2974,4.59971,2470.087,2020-9-16T11:45:22Z
2020-09-16T09:47:34Z,42.805,6.029,13.2969,4.59973,2470.1,2020-9-16T11:48:25Z
2020-09-16T09:50:37Z,42.805,6.029,13.2974,4.59973,2470.04,2020-9-16T11:51:29Z
2020-09-16T09:53:40Z,42.805,6.029,13.2971,4.59972,2470.063,2020-9-16T11:54:32Z
2020-09-16T09:56:45Z,42.805,6.029,13.2973,4.59972,2470.04,2020-9-16T11:57:37Z
2020-09-16T09:59:49Z,42.805,6.029,13.2972,4.59973,2470.04,2020-9-16T12:00:40Z
2020-09-16T10:02:52Z,42.805,6.029,13.2973,4.59972,2470.04,2020-9-16T12:03:44Z
2020-09-16T10:05:54Z,42.805,6.029,13.2972,4.59973,2470.063,2020-9-16T12:06:45Z
2020-09-16T10:08:58Z,42.805,6.029,13.2968,4.59972,2470.03,2020-9-16T12:09:50Z
2020-09-16T10:12:02Z,42.805,6.029,13.2973,4.59972,2470.04,2020-9-16T12:12:54Z
2020-09-16T10:15:05Z,42.805,6.029,13.2973,4.59971,2470.04,2020-9-16T12:15:57Z
2020-09-16T10:18:07Z,42.805,6.029,13.2971,4.59972,2470.017,2020-9-16T12:18:59Z
2020-09-16T10:21:09Z,42.805,6.029,13.2972,4.59972,2470.04,2020-9-16T12:22:01Z
2020-09-16T10:24:13Z,42.805,6.029,13.2970,4.59972,2470.04,2020-9-16T12:25:04Z
2020-09-16T10:27:14Z,42.805,6.029,13.2971,4.59973,2470.03,2020-9-16T12:28:05Z
2020-09-16T10:30:18Z,42.805,6.029,13.2973,4.59973,2470.017,2020-9-16T12:31:09Z
2020-09-16T10:33:21Z,42.805,6.029,13.2971,4.59971,2470.04,2020-9-16T12:34:13Z
2020-09-16T10:36:24Z,42.805,6.029,13.2970,4.59972,2470.017,2020-9-16T12:37:16Z
2020-09-16T10:39:28Z,42.805,6.029,13.2969,4.59972,2470.007,2020-9-16T12:40:20Z
2020-09-16T10:42:33Z,42.805,6.029,13.2971,4.59972,2470.017,2020-9-16T12:43:24Z
2020-09-16T10:45:37Z,42.805,6.029,13.2972,4.59973,2470.063,2020-9-16T12:46:29Z
2020-09-16T10:48:41Z,42.805,6.029,13.2964,4.59972,2470.04,2020-9-16T12:49:32Z
2020-09-16T10:51:44Z,42.805,6.029,13.2971,4.59972,2469.993,2020-9-16T12:52:36Z
2020-09-16T10:54:48Z,42.805,6.029,13.2972,4.59971,2470.007,2020-9-16T12:55:40Z
2020-09-16T10:57:53Z,42.805,6.029,13.2970,4.59971,2470.017,2020-9-16T12:58:44Z
2020-09-16T11:00:55Z,42.805,6.029,13.2971,4.59971,2469.993,2020-9-16T13:01:47Z
2020-09-16T11:03:58Z,42.805,6.029,13.2968,4.59971,2470.03,2020-9-16T13:04:50Z
2020-09-16T11:07:02Z,42.805,6.029,13.2971,4.59973,2469.993,2020-9-16T13:07:53Z
2020-09-16T11:10:05Z,42.805,6.029,13.2967,4.59972,2469.993,2020-9-16T13:10:57Z
2020-09-16T11:13:07Z,42.805,6.029,13.2968,4.59972,2470.017,2020-9-16T13:13:59Z
2020-09-16T11:16:11Z,42.805,6.029,13.2974,4.59973,2470.04,2020-9-16T13:17:02Z
2020-09-16T11:19:14Z,42.805,6.029,13.2974,4.59971,2469.993,2020-9-16T13:20:06Z
2020-09-16T11:22:19Z,42.805,6.029,13.2970,4.59971,2470.007,2020-9-16T13:23:11Z
2020-09-16T11:25:24Z,42.805,6.029,13.2973,4.59972,2470.003,2020-9-16T13:26:15Z
2020-09-16T11:28:25Z,42.805,6.029,13.2973,4.59973,2470.007,2020-9-16T13:29:17Z
2020-09-16T11:31:28Z,42.805,6.029,13.2971,4.59972,2469.993,2020-9-16T13:32:20Z
2020-09-16T11:34:32Z,42.805,6.029,13.2969,4.59971,2470.007,2020-9-16T13:35:24Z
2020-09-16T11:37:36Z,42.805,6.029,13.2971,4.59972,2469.984,2020-9-16T13:38:27Z
2020-09-16T11:40:37Z,42.805,6.029,13.2970,4.59972,2470.007,2020-9-16T13:41:28Z
2020-09-16T11:43:41Z,42.805,6.029,13.2974,4.59972,2469.97,2020-9-16T13:44:33Z
2020-09-16T11:46:46Z,42.805,6.029,13.2970,4.59973,2469.993,2020-9-16T13:47:37Z
2020-09-16T11:49:47Z,42.805,6.029,13.2974,4.59973,2470.017,2020-9-16T13:50:39Z
2020-09-16T11:52:52Z,42.805,6.029,13.2971,4.59971,2469.993,2020-9-16T13:53:44Z
2020-09-16T11:55:55Z,42.805,6.029,13.2972,4.59973,2470.007,2020-9-16T13:56:47Z
2020-09-16T11:59:00Z,42.805,6.029,13.2973,4.59973,2469.97,2020-9-16T13:59:52Z
2020-09-16T12:02:01Z,42.805,6.029,13.2968,4.59972,2469.97,2020-9-16T14:02:53Z
2020-09-16T12:05:06Z,42.805,6.029,13.2971,4.59971,2469.947,2020-9-16T14:05:58Z
2020-09-16T12:08:11Z,42.805,6.029,13.2970,4.59973,2469.993,2020-9-16T14:09:03Z
2020-09-16T12:11:15Z,42.805,6.029,13.2972,4.59972,2469.97,2020-9-16T14:12:07Z
2020-09-16T12:14:19Z,42.805,6.029,13.2969,4.59973,2469.937,2020-9-16T14:15:11Z
2020-09-16T12:17:22Z,42.805,6.029,13.2969,4.59972,2469.97,2020-9-16T14:18:14Z
2020-09-16T12:20:27Z,42.805,6.029,13.2974,4.59971,2469.993,2020-9-16T14:21:19Z
2020-09-16T12:23:30Z,42.805,6.029,13.2971,4.59971,2469.97,2020-9-16T14:24:22Z
2020-09-16T12:26:35Z,42.805,6.029,13.2973,4.59971,2469.97,2020-9-16T14:27:27Z
2020-09-16T12:29:39Z,42.805,6.029,13.2971,4.59973,2469.947,2020-9-16T14:30:31Z
2020-09-16T12:32:43Z,42.805,6.029,13.2974,4.59972,2469.993,2020-9-16T14:33:34Z
2020-09-16T12:35:45Z,42.805,6.029,13.2969,4.59972,2469.97,2020-9-16T14:36:36Z
2020-09-16T12:38:48Z,42.805,6.029,13.2971,4.59972,2469.97,2020-9-16T14:39:40Z
2020-09-16T12:41:51Z,42.805,6.029,13.2971,4.59973,2469.947,2020-9-16T14:42:43Z
2020-09-16T12:44:55Z,42.805,6.029,13.2970,4.59972,2469.947,2020-9-16T14:45:46Z
2020-09-16T12:47:58Z,42.805,6.029,13.2974,4.59971,2469.97,2020-9-16T14:48:50Z
2020-09-16T12:51:01Z,42.805,6.029,13.2974,4.59972,2469.97,2020-9-16T14:51:53Z
2020-09-16T12:54:05Z,42.805,6.029,13.2974,4.59973,2469.97,2020-9-16T14:54:57Z
2020-09-16T12:57:08Z,42.805,6.029,13.2974,4.59971,2469.947,2020-9-16T14:57:59Z
2020-09-16T13:00:12Z,42.805,6.029,13.2970,4.59972,2469.993,2020-9-16T15:01:03Z
2020-09-16T13:03:15Z,42.805,6.029,13.2967,4.59972,2469.97,2020-9-16T15:04:07Z
2020-09-16T13:06:19Z,42.805,6.029,13.2969,4.59971,2469.97,2020-9-16T15:07:11Z
2020-09-16T13:09:24Z,42.805,6.029,13.2974,4.59972,2469.984,2020-9-16T15:10:16Z
2020-09-16T13:12:28Z,42.805,6.029,13.2970,4.59973,2470.007,2020-9-16T15:13:20Z
2020-09-16T13:15:30Z,42.805,6.029,13.2971,4.59972,2469.993,2020-9-16T15:16:21Z
2020-09-16T13:18:33Z,42.805,6.029,13.2971,4.59972,2470.007,2020-9-16T15:19:25Z
2020-09-16T13:21:36Z,42.805,6.029,13.2974,4.59972,2469.956,2020-9-16T15:22:28Z
2020-09-16T13:24:40Z,42.805,6.029,13.2972,4.59972,2469.984,2020-9-16T15:25:31Z
2020-09-16T13:27:41Z,42.805,6.029,13.2974,4.59971,2469.96,2020-9-16T15:28:33Z
2020-09-16T13:30:42Z,42.805,6.029,13.2971,4.59973,2469.947,2020-9-16T15:31:34Z
2020-09-16T13:33:45Z,42.805,6.029,13.2968,4.59971,2469.947,2020-9-16T15:34:37Z
2020-09-16T13:36:49Z,42.805,6.029,13.2971,4.59971,2469.993,2020-9-16T15:37:40Z
2020-09-16T13:39:53Z,42.805,6.029,13.2969,4.59972,2469.97,2020-9-16T15:40:44Z
2020-09-16T13:42:55Z,42.805,6.029,13.2967,4.59971,2470.007,2020-9-16T15:43:47Z
2020-09-16T13:46:00Z,42.805,6.029,13.2969,4.59971,2469.947,2020-9-16T15:46:52Z
2020-09-16T13:49:05Z,42.805,6.029,13.2969,4.59972,2469.993,2020-9-16T15:49:56Z
2020-09-16T13:52:10Z,42.805,6.029,13.2971,4.59971,2469.97,2020-9-16T15:53:01Z
2020-09-16T13:55:12Z,42.805,6.029,13.2971,4.59972,2469.993,2020-9-16T15:56:03Z
2020-09-16T13:58:14Z,42.805,6.029,13.2968,4.59973,2469.97,2020-9-16T15:59:06Z
2020-09-16T14:01:17Z,42.805,6.029,13.2971,4.59971,2470.03,2020-9-16T16:02:09Z
2020-09-16T14:04:19Z,42.805,6.029,13.2969,4.59972,2470.017,2020-9-16T16:05:11Z
2020-09-16T14:07:22Z,42.805,6.029,13.2968,4.59971,2470.017,2020-9-16T16:08:14Z
2020-09-16T14:10:26Z,42.805,6.029,13.2972,4.59971,2470.03,2020-9-16T16:11:18Z
2020-09-16T14:13:28Z,42.805,6.029,13.2976,4.59972,2470.007,2020-9-16T16:14:20Z
2020-09-16T14:16:30Z,42.805,6.029,13.2970,4.59972,2470.017,2020-9-16T16:17:22Z
2020-09-16T14:19:32Z,42.805,6.029,13.2972,4.59971,2469.993,2020-9-16T16:20:24Z
2020-09-16T14:22:36Z,42.805,6.029,13.2971,4.59971,2470.04,2020-9-16T16:23:28Z
2020-09-16T14:25:40Z,42.805,6.029,13.2970,4.59971,2469.993,2020-9-16T16:26:32Z
2020-09-16T14:28:43Z,42.805,6.029,13.2968,4.59972,2470.017,2020-9-16T16:29:35Z
2020-09-16T14:31:48Z,42.805,6.029,13.2969,4.59972,2470.017,2020-9-16T16:32:40Z
2020-09-16T14:34:52Z,42.805,6.029,13.2970,4.59971,2470.03,2020-9-16T16:35:43Z
2020-09-16T14:37:54Z,42.805,6.029,13.2970,4.59971,2470.017,2020-9-16T16:38:46Z
2020-09-16T14:40:59Z,42.805,6.029,13.2970,4.59971,2470.053,2020-9-16T16:41:51Z
2020-09-16T14:44:03Z,42.805,6.029,13.2972,4.59973,2470.04,2020-9-16T16:44:54Z
2020-09-16T14:47:05Z,42.805,6.029,13.2971,4.59971,2470.04,2020-9-16T16:47:57Z
2020-09-16T14:50:09Z,42.805,6.029,13.2971,4.59973,2470.017,2020-9-16T16:51:01Z
2020-09-16T14:53:12Z,42.805,6.029,13.2971,4.59973,2470.04,2020-9-16T16:54:03Z
2020-09-16T14:56:16Z,42.805,6.029,13.2971,4.59972,2470.053,2020-9-16T16:57:07Z
2020-09-16T14:59:20Z,42.805,6.029,13.2970,4.59971,2470.017,2020-9-16T17:00:11Z
2020-09-16T15:02:22Z,42.805,6.029,13.2968,4.59972,2470.03,2020-9-16T17:03:13Z
2020-09-16T15:05:23Z,42.805,6.029,13.2971,4.59972,2470.053,2020-9-16T17:06:15Z
2020-09-16T15:08:27Z,42.805,6.029,13.2968,4.59972,2470.077,2020-9-16T17:09:18Z
2020-09-16T15:11:29Z,42.805,6.029,13.2973,4.59972,2470.063,2020-9-16T17:12:21Z
2020-09-16T15:14:33Z,42.805,6.029,13.2975,4.59972,2470.063,2020-9-16T17:15:25Z